[[{"header":{"parameterUnit":"m.s-1","parameterCategory":1,"la1":30.2991,"la2":30.254,"lo1":-89.0895,"lo2":-89.0444,"dy":0.0017,"dx":0.0017,"nx":28,"ny":28,"refTime":"2024-09-27T03:00:00:Z","depth":0,"parameterNumber":2,"parameterNumberName":"U-component_of_WINDS"},"data":[0,0,0,0,0,0,0,0,0,0,0,0,0,0,0,0,0,0,0,0,0,0,0,0,0,0,0,0,0,0,0,0,0,0,0,0,0,0,0,0,0,0,0,0,0,0,0,0,0,0,0,0,0,0,0,0,0,0,1.1238,1.1237,0,1.1193,1.1192,1.1191,1.1166,1.1166,1.1166,1.1166,1.1116,1.1115,1.1114,0,0,0,0,0,0,0,0,0,0,0,0,0,1.1301,1.13,1.1238,1.1237,1.1237,1.1193,1.1192,1.1191,1.1166,1.1166,1.1166,1.1166,1.1117,1.1115,1.1114,0,0,0,0,0,0,0,0,0,0,0,0,0,1.1267,1.13,1.1238,1.1219,1.1217,1.1193,1.1192,1.1191,1.1166,1.1166,1.1166,1.1166,1.1117,1.1116,1.1114,1.1104,0,0,1.1108,1.1107,0,0,0,0,0,0,0,0,1.1269,1.1264,1.1222,1.122,1.1218,1.1185,1.1196,1.1162,1.1166,1.1185,1.1166,1.1166,1.1139,1.1135,1.1127,1.1102,1.11,1.1108,1.1107,1.1106,1.1105,0,0,0,0,0,0,0,1.1271,1.1266,1.122,1.1222,1.1219,1.1212,1.1207,1.119,1.1163,1.1183,1.1182,1.1177,1.1138,1.1129,1.1126,1.1099,1.1108,1.1106,1.1105,1.1104,1.1066,1.1066,0,0,0,0,0,0,1.1277,1.1268,1.1221,1.1218,1.1243,1.1211,1.1205,1.1195,1.1163,1.1158,1.1177,1.1176,1.1132,1.1128,1.1124,1.1112,1.1106,1.1104,1.1103,1.1066,1.1066,1.1066,0,0,0,0,0,0,1.1278,1.1273,1.1223,1.1243,1.1236,1.121,1.1199,1.1195,1.1186,1.1158,1.1153,1.1173,1.1132,1.1127,1.111,1.1109,1.1103,1.1102,1.1066,1.1066,1.1066,1.1086,0,0,0,0,0,0,1.128,1.1273,1.127,1.1243,1.1235,1.121,1.1199,1.1194,1.1183,1.1181,1.1153,1.1148,1.1131,1.1113,1.1108,1.1107,1.11,1.1066,1.1066,1.1066,1.1086,1.1087,1.1089,0,0,0,0,0,1.1282,1.1276,1.127,1.1264,1.123,1.121,1.1206,1.1187,1.1183,1.1179,1.1162,1.1149,1.1111,1.1111,1.1106,1.1104,1.1065,1.1066,1.1066,1.1085,1.1087,1.1089,0,0,0,0,0,0,1.1302,1.1272,1.1265,1.125,1.1233,1.1206,1.12,1.119,1.1173,1.1171,1.1148,1.1142,1.1128,1.1114,1.1116,1.1094,1.1087,1.1086,1.1103,1.1105,1.1106,1.1109,1.1099,0,0,0,0,0,1.1305,1.1292,1.1267,1.1256,1.1248,1.1226,1.1216,1.1204,1.1185,1.1178,1.1159,1.1141,1.1124,1.1114,1.1098,1.1084,1.1078,1.108,1.1082,1.1083,1.1082,1.1075,1.1076,1.1067,1.1067,1.1067,0,0,1.131,1.1292,1.1285,1.126,1.1245,1.1232,1.122,1.1206,1.1196,1.1175,1.1159,1.1145,1.1123,1.1108,1.1101,1.1096,1.1084,1.1083,1.1085,1.1083,1.1076,1.1077,1.1077,1.1067,1.1067,1.1067,0,0,1.1313,1.1298,1.1288,1.1275,1.1253,1.1239,1.1237,1.1212,1.1202,1.1186,1.1171,1.1158,1.1131,1.1116,1.1105,1.1105,1.1093,1.1101,1.1108,1.1101,1.1102,1.1103,1.1103,1.1103,1.11,1.11,1.11,0,1.1321,1.1302,1.1284,1.1272,1.1261,1.1244,1.1234,1.1221,1.1195,1.1188,1.1184,1.115,1.1134,1.1116,1.1117,1.1108,1.1105,1.1103,1.1104,1.1104,1.1104,1.1104,1.1104,1.1101,1.1101,1.1101,1.1101,0,1.1314,1.13,1.1295,1.1272,1.1261,1.125,1.1231,1.1221,1.1211,1.1197,1.1181,1.1162,1.1142,1.1137,1.1125,1.1118,1.1116,1.1108,1.11,1.1106,1.1106,1.1106,1.1103,1.1102,1.1102,1.1102,0,0,1.1325,1.1295,1.1293,1.1283,1.126,1.1249,1.1238,1.1219,1.1212,1.1195,1.1185,1.1164,1.1157,1.1145,1.1132,1.1126,1.1128,1.1119,1.1118,1.1121,1.112,1.1125,1.1125,1.1121,1.1121,1.1121,1.1121,0,1.1324,1.1303,1.1289,1.1273,1.1261,1.1246,1.1236,1.122,1.1208,1.1195,1.1181,1.1167,1.1159,1.1151,1.1145,1.113,1.1128,1.1129,1.1111,1.111,1.1116,1.1125,1.113,1.1132,1.1121,1.1121,1.1121,0,1.132,1.1306,1.129,1.1269,1.1263,1.1255,1.1238,1.1226,1.1209,1.12,1.1188,1.1175,1.1163,1.1158,1.114,1.1142,1.1134,1.1125,1.1125,1.1121,1.1115,1.1122,1.1131,1.1131,1.1121,1.1121,1.1121,0,1.133,1.1307,1.1294,1.1286,1.1262,1.1257,1.1246,1.1229,1.122,1.1205,1.1198,1.1182,1.1173,1.1161,1.1144,1.1142,1.1129,1.1121,1.1121,1.1121,1.1117,1.1117,1.1125,1.1114,1.1114,1.1113,1.1113,0,1.133,1.1321,1.1299,1.1291,1.1281,1.1264,1.1254,1.1242,1.1228,1.1217,1.1203,1.1194,1.1173,1.1161,1.1148,1.1136,1.1132,1.1125,1.1121,1.1125,1.1126,1.1119,1.1118,1.1114,1.1114,1.1114,1.1114,0,1.1339,1.1324,1.1309,1.1289,1.1283,1.1277,1.1258,1.1251,1.1238,1.1226,1.1222,1.1202,1.1188,1.1171,1.115,1.1142,1.1131,1.1126,1.1137,1.1135,1.1135,1.1135,1.1137,1.1137,1.1126,1.1126,1.1127,0,1.1339,1.1332,1.1311,1.1304,1.1294,1.1283,1.1274,1.1258,1.1249,1.123,1.1224,1.1209,1.1196,1.1174,1.1158,1.1143,1.1137,1.1139,1.1134,1.1139,1.1137,1.1137,1.1136,1.114,1.114,1.114,1.114,0,1.1342,1.1335,1.1323,1.1309,1.1299,1.1287,1.1274,1.1269,1.125,1.1241,1.1227,1.1217,1.1198,1.1183,1.1166,1.1155,1.1144,1.1142,1.1141,1.1145,1.1151,1.1148,1.114,1.1142,1.1142,1.1141,1.1141,1.1141,1.1346,1.1339,1.1324,1.1312,1.1301,1.129,1.1282,1.127,1.1258,1.1241,1.1233,1.1219,1.1203,1.118,1.117,1.1159,1.1155,1.1153,1.1153,1.1152,1.1154,1.1155,1.1156,1.1156,1.1155,1.1155,1.1155,0,1.1348,1.1338,1.1327,1.131,1.13,1.1293,1.1279,1.1271,1.126,1.1247,1.1235,1.1219,1.1206,1.119,1.1175,1.1169,1.1164,1.1166,1.1165,1.1163,1.1158,1.116,1.117,1.117,1.117,1.117,1.117,1.117,1.1347,1.1336,1.1328,1.1312,1.1302,1.1289,1.1282,1.1272,1.1261,1.1245,1.1234,1.1224,1.121,1.1195,1.1182,1.1177,1.1172,1.1176,1.117,1.1165,1.1163,1.1162,1.1164,1.1175,1.1175,1.1176,1.1176,1.1176]},{"header":{"parameterUnit":"m.s-1","parameterCategory":1,"la1":30.2991,"la2":30.254,"lo1":-89.0895,"lo2":-89.0444,"dy":0.0017,"dx":0.0017,"nx":28,"ny":28,"refTime":"2024-09-27T03:00:00:Z","depth":0,"parameterNumber":3,"parameterNumberName":"V-component_of_WINDS"},"data":[0,0,0,0,0,0,0,0,0,0,0,0,0,0,0,0,0,0,0,0,0,0,0,0,0,0,0,0,0,0,0,0,0,0,0,0,0,0,0,0,0,0,0,0,0,0,0,0,0,0,0,0,0,0,0,0,0,0,-8.8577,-8.8578,0,-8.8714,-8.8716,-8.8717,-8.8601,-8.8597,-8.8592,-8.8587,-8.8722,-8.8729,-8.8737,0,0,0,0,0,0,0,0,0,0,0,0,0,-8.8208,-8.8216,-8.8576,-8.8578,-8.858,-8.8714,-8.8716,-8.8718,-8.8602,-8.8596,-8.8591,-8.8585,-8.8719,-8.8728,-8.8738,0,0,0,0,0,0,0,0,0,0,0,0,0,-8.8359,-8.8218,-8.8576,-8.8539,-8.8537,-8.8714,-8.8716,-8.8718,-8.8603,-8.8596,-8.8589,-8.8582,-8.8716,-8.8728,-8.8739,-8.8959,0,0,-8.8776,-8.8782,0,0,0,0,0,0,0,0,-8.8351,-8.8373,-8.8542,-8.8541,-8.854,-8.8633,-8.8635,-8.8799,-8.8605,-8.8578,-8.8587,-8.8579,-8.8698,-8.8711,-8.8752,-8.8965,-8.8971,-8.8777,-8.8785,-8.879,-8.8793,0,0,0,0,0,0,0,-8.834,-8.8366,-8.8631,-8.8545,-8.8543,-8.8513,-8.8527,-8.8666,-8.8676,-8.858,-8.8572,-8.859,-8.8695,-8.8741,-8.8754,-8.8973,-8.8777,-8.8788,-8.8795,-8.88,-8.9374,-8.9381,0,0,0,0,0,0,-8.8335,-8.8358,-8.8626,-8.8635,-8.8426,-8.8526,-8.8541,-8.861,-8.8675,-8.8678,-8.8596,-8.8584,-8.8724,-8.8741,-8.8759,-8.9021,-8.879,-8.8801,-8.8808,-8.9366,-8.9376,-8.9384,0,0,0,0,0,0,-8.8327,-8.836,-8.8621,-8.8495,-8.8525,-8.854,-8.8619,-8.8617,-8.8662,-8.8687,-8.8688,-8.8641,-8.8719,-8.8742,-8.8911,-8.9024,-8.8807,-8.8818,-8.9356,-8.9369,-8.938,-8.9548,0,0,0,0,0,0,-8.8317,-8.8358,-8.8442,-8.8497,-8.8533,-8.8773,-8.8626,-8.8625,-8.8684,-8.867,-8.8729,-8.8732,-8.8715,-8.8893,-8.8923,-8.9037,-8.8827,-8.9346,-8.9362,-8.9376,-8.9532,-8.9564,-8.9591,0,0,0,0,0,-8.8304,-8.8482,-8.8447,-8.848,-8.8639,-8.8779,-8.8799,-8.8778,-8.8694,-8.8779,-8.8795,-8.873,-8.9007,-8.8912,-8.8944,-8.9063,-8.9339,-8.9358,-8.9375,-8.9519,-8.9558,-8.959,0,0,0,0,0,0,-8.8437,-8.8488,-8.845,-8.8651,-8.8712,-8.876,-8.8865,-8.8819,-8.8903,-8.8886,-8.8854,-8.8868,-8.9047,-8.9071,-8.8964,-8.928,-8.9159,-8.9185,-8.9258,-8.9295,-8.9324,-8.9314,-8.8837,0,0,0,0,0,-8.849,-8.8601,-8.8639,-8.8813,-8.8846,-8.8851,-8.8911,-8.889,-8.895,-8.8975,-8.9003,-8.9063,-8.9163,-8.923,-8.9323,-8.9535,-8.9546,-8.9633,-8.9662,-8.9686,-8.9709,-8.9824,-8.9863,-8.9443,-8.9443,-8.9443,0,0,-8.8599,-8.8641,-8.8713,-8.8841,-8.8885,-8.9001,-8.8873,-8.8999,-8.9085,-8.8993,-8.9156,-8.9179,-8.9243,-8.9435,-8.9521,-8.9461,-8.9828,-8.9709,-8.9728,-8.9738,-8.9847,-8.9886,-8.9922,-8.9455,-8.9453,-8.9451,0,0,-8.8859,-8.8902,-8.9053,-8.9101,-8.9171,-8.9174,-8.921,-8.9266,-8.9278,-8.9442,-8.9376,-8.9475,-8.9649,-8.9698,-8.9746,-9.0027,-8.9971,-9.0058,-9.0213,-9.0325,-9.0359,-9.0388,-9.049,-9.0526,-9.008,-9.0081,-9.0081,0,-8.8986,-8.9159,-8.9135,-8.9268,-8.9326,-8.9252,-8.9404,-8.9451,-8.9548,-8.9589,-8.9521,-8.9739,-8.9777,-8.998,-9.005,-9.009,-9.013,-9.0052,-9.0356,-9.0385,-9.0412,-9.0509,-9.0547,-9.0091,-9.009,-9.0089,-9.0088,0,-8.9313,-8.9434,-8.9547,-8.9646,-8.9716,-8.9858,-8.9854,-8.9929,-8.9901,-8.9911,-9.0079,-9.0122,-9.0224,-9.027,-9.0243,-9.0471,-9.0432,-9.0361,-9.0239,-9.0463,-9.0553,-9.059,-9.0106,-9.0102,-9.0099,-9.0096,0,0,-8.9659,-8.9745,-8.9787,-8.9832,-8.9905,-8.9997,-9.0136,-9.0239,-9.0304,-9.0372,-9.0488,-9.0638,-9.0573,-9.0628,-9.0606,-9.0705,-9.0927,-9.0621,-9.0622,-9.0678,-9.1182,-9.1236,-9.1279,-9.089,-9.0897,-9.0903,-9.1177,0,-8.9923,-9.0167,-9.015,-9.0379,-9.0491,-9.0423,-9.0543,-9.0601,-9.0614,-9.0709,-9.0721,-9.083,-9.0736,-9.0768,-9.0863,-9.088,-9.1028,-9.086,-9.0997,-9.1002,-9.0985,-9.1326,-9.1384,-9.164,-9.1212,-9.1218,-9.1222,0,-9.0263,-9.0349,-9.059,-9.0649,-9.0695,-9.0804,-9.0899,-9.0991,-9.1054,-9.1057,-9.112,-9.1082,-9.122,-9.1095,-9.1286,-9.1172,-9.1227,-9.1244,-9.1253,-9.1266,-9.1127,-9.135,-9.1721,-9.1761,-9.1277,-9.1273,-9.1269,0,-9.0494,-9.0668,-9.0836,-9.0876,-9.0949,-9.1027,-9.1061,-9.1117,-9.1181,-9.1262,-9.1303,-9.1399,-9.1451,-9.1525,-9.1514,-9.1424,-9.1709,-9.1582,-9.1714,-9.1715,-9.1778,-9.1775,-9.2166,-9.1812,-9.1811,-9.181,-9.1809,0,-9.0792,-9.0942,-9.0941,-9.1045,-9.1212,-9.119,-9.1356,-9.1379,-9.1431,-9.1537,-9.1482,-9.1582,-9.156,-9.166,-9.1651,-9.1811,-9.1834,-9.184,-9.1836,-9.1846,-9.1846,-9.1882,-9.1865,-9.182,-9.1818,-9.1816,-9.1814,0,-9.1078,-9.1083,-9.1262,-9.1317,-9.1334,-9.1455,-9.1501,-9.1599,-9.1607,-9.1742,-9.1772,-9.1786,-9.19,-9.1897,-9.2025,-9.2019,-9.2217,-9.2191,-9.2197,-9.2192,-9.2325,-9.2313,-9.2754,-9.2812,-9.2419,-9.2423,-9.2426,0,-9.1268,-9.1383,-9.1452,-9.1521,-9.156,-9.1671,-9.1737,-9.172,-9.179,-9.1873,-9.1961,-9.207,-9.2157,-9.2343,-9.2363,-9.2461,-9.2439,-9.2587,-9.2453,-9.246,-9.2443,-9.2437,-9.2449,-9.2613,-9.2617,-9.2621,-9.2624,0,-9.1606,-9.1604,-9.1702,-9.1803,-9.1884,-9.1962,-9.2033,-9.2091,-9.2082,-9.2164,-9.2282,-9.235,-9.2484,-9.2593,-9.2689,-9.272,-9.2672,-9.2666,-9.2702,-9.2714,-9.2713,-9.2718,-9.227,-9.2656,-9.2653,-9.265,-9.2649,-9.2647,-9.1851,-9.1952,-9.2017,-9.2129,-9.2181,-9.225,-9.2345,-9.2367,-9.2466,-9.2576,-9.2559,-9.2692,-9.2753,-9.2876,-9.2917,-9.3019,-9.2966,-9.3018,-9.3031,-9.3045,-9.3061,-9.2697,-9.3036,-9.3035,-9.3034,-9.3033,-9.3032,0,-9.2188,-9.2228,-9.2331,-9.2434,-9.2523,-9.2472,-9.2548,-9.2625,-9.2743,-9.2806,-9.2894,-9.303,-9.3137,-9.3167,-9.3269,-9.3346,-9.3326,-9.3373,-9.3368,-9.3377,-9.3101,-9.3061,-9.3388,-9.3388,-9.3388,-9.3388,-9.3387,-9.3387,-9.2374,-9.2542,-9.2548,-9.2741,-9.2778,-9.291,-9.2958,-9.3021,-9.3071,-9.3227,-9.3317,-9.3337,-9.3386,-9.3492,-9.3588,-9.3594,-9.3635,-9.3692,-9.3689,-9.3431,-9.3396,-9.3362,-9.3324,-9.37,-9.3701,-9.3956,-9.3958,-9.396]}]]